Погода в Юйяо

Китай     30°02′52″N   121°08′23″E
темп.,
°C
ветер,
м/с
пор.,
м/с
влажн.,
%
обл.,
%
осадки,
мм/ч
давл.,
гПа
погр.,
м
28 февраля, вс
вс2823:00+10св1298100 0.8 1023159
02:00+10сз1198100 0.8 102163
05:00+10ссз1198100 0.1 102146
08:00+12св019597 0.1 1021138
11:00+15ссз118798 0.0 1020342
14:00+17ссв118199 0.0 1017457
17:00+16ссв118891 0.0 1017179
20:00+12вюв229661 0.0 101759
1 марта, пн
пн123:00+13ююв229569 0.0 101743
02:00+14ююв229481 0.1 101657
05:00+13ю119390 0.3 101523
08:00+15з118891 0.3 101684
11:00+19сз458053 0.0 1016608
14:00+14зсз499377 1.2 1015546
17:00+13сз51095100 3.0 1016569
20:00+10сз61194100 4.8 1021741
2 марта, вт
вт223:00+8ссз5992100 0.8 1023686
02:00+7ссз5991100 1.3 1024717
05:00+7ссз5989100 0.1 1025730
08:00+6ссз478799 0.1 1028720
11:00+7ссз3581100 0.1 1029816
14:00+9с346998 0.1 1027965
17:00+8всв357013 0.0 1028698
20:00+5в238643 0.0 1029163
3 марта, ср
ср323:00+6юв128699 0.0 1030182
02:00+5ююв128699 0.0 102983
05:00+6юв238499 0.0 1028204
08:00+7юв387998 0.0 1028629
11:00+10юв586889 0.0 1027881
14:00+11ююв576793 0.0 1025990
17:00+10юв3879100 0.0 1024697
20:00+9юв3887100 0.3 1024474
4 марта, чт
чт423:00+9ююв1394100 1.8 1024214
02:00+9зсз0196100 3.9 102178
05:00+9ссз1196100 1.4 102063
08:00+9сз1296100 1.9 1020159
11:00+10з1292100 0.2 1020186
14:00+15зсз347898 0.2 1018665
17:00+14сз237799 0.0 1018308
20:00+11зюз118588 0.0 101922